When you browse on this site, cookies collect data to enhance your experience and personalize the content and advertising you see.
Visit our Privacy Policy to learn more. By continuing to use the site, you agree to this use of cookies and data.
  • In Romania
  • List of Countries
  • For 7 days
  • Water Temperature
  • Weather Map
  • Weather Widgets
  • user-avatar
    Login

    Hourly Weather Bekescsaba

    Today, 23 October, Wednesday

    Time Temperature Precipitation Wind Pressure Humidity
    00:00 +20°C° 0 mm 1 mps 759 mmHg 59%
    01:00 +19°C° 0 mm 1 mps 759 mmHg 61%
    02:00 +19°C° 0 mm 1 mps 759 mmHg 63%
    03:00 +18°C° 0 mm 1 mps 759 mmHg 64%
    04:00 +18°C° 0 mm 1 mps 758 mmHg 66%
    05:00 +18°C° 0 mm 1 mps 758 mmHg 65%
    06:00 +18°C° 0 mm 1 mps 758 mmHg 64%
    07:00 +18°C° 0 mm 1 mps 759 mmHg 64%
    08:00 +20°C° 0 mm 1 mps 758 mmHg 57%
    09:00 +22°C° 0 mm 1 mps 758 mmHg 50%
    10:00 +24°C° 0 mm 1 mps 758 mmHg 42%
    11:00 +25°C° 0 mm 1 mps 758 mmHg 39%
    12:00 +24°C° 0 mm 0 mps 758 mmHg 36%
    13:00 +25°C° 0 mm 0 mps 757 mmHg 33%
    14:00 +25°C° 0 mm 0 mps 757 mmHg 35%
    15:00 +26°C° 0 mm 1 mps 757 mmHg 38%
    16:00 +25°C° 0 mm 1 mps 756 mmHg 40%
    17:00 +24°C° 0 mm 1 mps 756 mmHg 43%
    18:00 +23°C° 0 mm 1 mps 756 mmHg 46%
    19:00 +22°C° 0 mm 1 mps 756 mmHg 49%
    20:00 +21°C° 0 mm 1 mps 756 mmHg 52%
    21:00 +21°C° 0 mm 1 mps 756 mmHg 54%
    22:00 +20°C° 0 mm 1 mps 756 mmHg 56%
    23:00 +20°C° 0 mm 1 mps 756 mmHg 57%

    Tomorrow, 24 October, Thursday

    Time Temperature Precipitation Wind Pressure Humidity
    00:00 +18°C° 0 mm 2 mps 756 mmHg 58%
    01:00 +18°C° 0 mm 2 mps 756 mmHg 58%
    02:00 +17°C° 0 mm 2 mps 756 mmHg 59%
    03:00 +17°C° 0 mm 2 mps 756 mmHg 59%
    04:00 +16°C° 0 mm 2 mps 756 mmHg 60%
    05:00 +16°C° 0 mm 2 mps 755 mmHg 60%
    06:00 +16°C° 0 mm 2 mps 755 mmHg 60%
    07:00 +16°C° 0 mm 1 mps 755 mmHg 60%
    08:00 +18°C° 0 mm 2 mps 755 mmHg 53%
    09:00 +20°C° 0 mm 2 mps 755 mmHg 46%
    10:00 +24°C° 0 mm 2 mps 755 mmHg 39%
    11:00 +25°C° 0 mm 2 mps 755 mmHg 34%
    12:00 +26°C° 0 mm 2 mps 755 mmHg 30%
    13:00 +27°C° 0 mm 2 mps 755 mmHg 26%
    14:00 +27°C° 0 mm 2 mps 754 mmHg 28%
    15:00 +26°C° 0 mm 2 mps 754 mmHg 29%
    16:00 +25°C° 0 mm 1 mps 753 mmHg 31%
    17:00 +24°C° 0 mm 1 mps 753 mmHg 33%
    18:00 +22°C° 0 mm 1 mps 753 mmHg 35%
    19:00 +21°C° 0 mm 1 mps 754 mmHg 38%
    20:00 +21°C° 0 mm 1 mps 754 mmHg 40%
    21:00 +20°C° 0 mm 1 mps 754 mmHg 43%
    22:00 +20°C° 0 mm 1 mps 754 mmHg 45%
    23:00 +19°C° 0 mm 1 mps 754 mmHg 47%

    Day after tomorrow, 25 October, Friday

    Time Temperature Precipitation Wind Pressure Humidity
    00:00 +18°C° 0 mm 1 mps 754 mmHg 49%
    01:00 +18°C° 0 mm 1 mps 754 mmHg 51%
    02:00 +16°C° 0 mm 1 mps 754 mmHg 53%
    03:00 +15°C° 0 mm 0 mps 754 mmHg 55%
    04:00 +15°C° 0 mm 0 mps 755 mmHg 57%
    05:00 +15°C° 0 mm 0 mps 755 mmHg 57%
    06:00 +15°C° 0 mm 0 mps 755 mmHg 56%
    07:00 +15°C° 0 mm 0 mps 755 mmHg 56%
    08:00 +17°C° 0 mm 0 mps 756 mmHg 50%
    09:00 +19°C° 0 mm 0 mps 756 mmHg 44%
    10:00 +21°C° 0 mm 0 mps 756 mmHg 38%
    11:00 +22°C° 0 mm 0 mps 756 mmHg 35%
    12:00 +25°C° 0 mm 1 mps 756 mmHg 32%
    13:00 +26°C° 0 mm 1 mps 756 mmHg 29%
    14:00 +25°C° 0 mm 1 mps 756 mmHg 30%
    15:00 +24°C° 0 mm 1 mps 756 mmHg 32%
    16:00 +24°C° 0 mm 1 mps 756 mmHg 34%
    17:00 +22°C° 0 mm 1 mps 756 mmHg 36%
    18:00 +21°C° 0 mm 1 mps 756 mmHg 39%
    19:00 +20°C° 0 mm 1 mps 756 mmHg 41%
    20:00 +20°C° 0 mm 1 mps 757 mmHg 44%
    21:00 +19°C° 0 mm 1 mps 757 mmHg 46%
    22:00 +18°C° 0 mm 1 mps 757 mmHg 48%
    23:00 +18°C° 0 mm 1 mps 757 mmHg 50%

    26 October, Saturday

    Time Temperature Precipitation Wind Pressure Humidity
    00:00 +16°C° 0 mm 1 mps 757 mmHg 53%
    01:00 +16°C° 0 mm 1 mps 757 mmHg 55%
    02:00 +15°C° 0 mm 1 mps 757 mmHg 57%
    03:00 +15°C° 0 mm 1 mps 757 mmHg 59%
    04:00 +13°C° 0 mm 0 mps 757 mmHg 60%
    05:00 +14°C° 0 mm 1 mps 757 mmHg 60%
    06:00 +15°C° 0 mm 1 mps 757 mmHg 60%
    07:00 +15°C° 0 mm 1 mps 757 mmHg 60%
    08:00 +18°C° 0 mm 1 mps 758 mmHg 54%
    09:00 +19°C° 0 mm 2 mps 758 mmHg 47%
    10:00 +21°C° 0 mm 2 mps 758 mmHg 40%
    11:00 +23°C° 0 mm 2 mps 758 mmHg 37%
    12:00 +24°C° 0 mm 2 mps 757 mmHg 34%
    13:00 +25°C° 0 mm 2 mps 757 mmHg 30%
    14:00 +24°C° 0 mm 2 mps 757 mmHg 32%
    15:00 +23°C° 0 mm 1 mps 756 mmHg 34%
    16:00 +22°C° 0 mm 1 mps 756 mmHg 36%
    17:00 +21°C° 0 mm 1 mps 756 mmHg 39%
    18:00 +20°C° 0 mm 1 mps 756 mmHg 41%
    19:00 +19°C° 0 mm 1 mps 757 mmHg 44%
    20:00 +19°C° 0 mm 1 mps 757 mmHg 46%
    21:00 +18°C° 0 mm 1 mps 757 mmHg 48%
    22:00 +18°C° 0 mm 1 mps 757 mmHg 50%
    23:00 +16°C° 0 mm 1 mps 756 mmHg 52%

    27 October, Sunday

    Time Temperature Precipitation Wind Pressure Humidity
    00:00 +16°C° 0 mm 2 mps 756 mmHg 54%
    01:00 +15°C° 0 mm 2 mps 756 mmHg 56%
    02:00 +15°C° 0 mm 2 mps 756 mmHg 58%
    03:00 +14°C° 0 mm 2 mps 756 mmHg 59%
    04:00 +14°C° 0 mm 2 mps 756 mmHg 60%
    05:00 +14°C° 0 mm 2 mps 756 mmHg 61%
    06:00 +14°C° 0 mm 2 mps 756 mmHg 61%
    07:00 +14°C° 0 mm 2 mps 756 mmHg 62%
    08:00 +16°C° 0 mm 3 mps 756 mmHg 56%
    09:00 +18°C° 0 mm 3 mps 756 mmHg 50%
    10:00 +20°C° 0 mm 3 mps 756 mmHg 43%
    11:00 +21°C° 0 mm 3 mps 756 mmHg 41%
    12:00 +22°C° 0 mm 3 mps 755 mmHg 39%
    13:00 +25°C° 0 mm 4 mps 755 mmHg 37%
    14:00 +24°C° 0 mm 3 mps 755 mmHg 41%
    15:00 +22°C° 0 mm 3 mps 755 mmHg 44%
    16:00 +21°C° 0 mm 3 mps 755 mmHg 48%
    17:00 +20°C° 0 mm 3 mps 755 mmHg 52%
    18:00 +19°C° 0 mm 3 mps 755 mmHg 56%
    19:00 +18°C° 0 mm 3 mps 755 mmHg 60%
    20:00 +17°C° 0 mm 3 mps 756 mmHg 60%
    21:00 +17°C° 0 mm 3 mps 756 mmHg 61%
    22:00 +16°C° 0 mm 3 mps 756 mmHg 61%
    23:00 +16°C° 0 mm 3 mps 756 mmHg 61%

    28 October, Monday

    Time Temperature Precipitation Wind Pressure Humidity
    00:00 +14°C° 0 mm 3 mps 756 mmHg 61%
    01:00 +14°C° 0 mm 3 mps 756 mmHg 62%
    02:00 +14°C° 0 mm 2 mps 756 mmHg 61%
    03:00 +13°C° 0 mm 2 mps 756 mmHg 60%
    04:00 +12°C° 0 mm 2 mps 756 mmHg 59%
    05:00 +12°C° 0 mm 2 mps 756 mmHg 54%
    06:00 +12°C° 0 mm 2 mps 756 mmHg 49%
    07:00 +12°C° 0 mm 2 mps 756 mmHg 44%
    08:00 +13°C° 0 mm 2 mps 756 mmHg 43%
    09:00 +13°C° 0 mm 2 mps 756 mmHg 41%
    10:00 +14°C° 0 mm 2 mps 756 mmHg 39%
    11:00 +13°C° 0 mm 2 mps 756 mmHg 41%
    12:00 +13°C° 0 mm 2 mps 756 mmHg 42%
    13:00 +13°C° 0 mm 2 mps 756 mmHg 44%
    14:00 +12°C° 0 mm 2 mps 756 mmHg 48%
    15:00 +12°C° 0 mm 2 mps 756 mmHg 52%
    16:00 +11°C° 0 mm 1 mps 755 mmHg 56%
    17:00 +11°C° 0.1 mm 1 mps 755 mmHg 60%
    18:00 +11°C° 0.1 mm 1 mps 755 mmHg 64%
    19:00 +10°C° 0.1 mm 1 mps 755 mmHg 68%
    20:00 +10°C° 0.1 mm 1 mps 755 mmHg 70%
    21:00 +10°C° 0.1 mm 1 mps 755 mmHg 73%
    22:00 +10°C° 0.1 mm 1 mps 755 mmHg 75%
    23:00 +10°C° 0 mm 1 mps 755 mmHg 76%

    29 October, Tuesday

    Time Temperature Precipitation Wind Pressure Humidity
    00:00 +10°C° 0 mm 1 mps 755 mmHg 77%
    01:00 +10°C° 0 mm 1 mps 755 mmHg 77%
    02:00 +10°C° 0.1 mm 1 mps 755 mmHg 79%
    03:00 +10°C° 0.1 mm 1 mps 755 mmHg 81%
    04:00 +10°C° 0.1 mm 1 mps 755 mmHg 83%
    05:00 +10°C° 0.3 mm 1 mps 755 mmHg 84%
    06:00 +10°C° 0.3 mm 1 mps 755 mmHg 85%
    07:00 +10°C° 0.3 mm 1 mps 755 mmHg 86%
    08:00 +10°C° 0.3 mm 1 mps 755 mmHg 85%
    09:00 +9°C° 0.3 mm 2 mps 755 mmHg 84%
    10:00 +9°C° 0.3 mm 2 mps 755 mmHg 84%
    11:00 +9°C° 0.4 mm 2 mps 755 mmHg 82%
    12:00 +9°C° 0.4 mm 2 mps 755 mmHg 81%
    13:00 +9°C° 0.4 mm 2 mps 756 mmHg 79%
    14:00 +9°C° 0.2 mm 2 mps 755 mmHg 76%
    15:00 +10°C° 0.2 mm 1 mps 755 mmHg 73%
    16:00 +10°C° 0.2 mm 1 mps 755 mmHg 70%
    17:00 +9°C° 0 mm 2 mps 756 mmHg 68%
    18:00 +9°C° 0 mm 2 mps 756 mmHg 65%
    19:00 +9°C° 0 mm 2 mps 757 mmHg 63%
    20:00 +9°C° 0 mm 3 mps 757 mmHg 59%
    21:00 +9°C° 0 mm 3 mps 757 mmHg 55%
    22:00 +8°C° 0 mm 3 mps 758 mmHg 52%
    23:00 +8°C° 0 mm 3 mps 758 mmHg 52%
    Show more